Flag for Palestinian Territories Weather past 2 weeks in Nablus, West Bank, Palestinian Territories

72 °F

Light rain. Passing clouds.

Feels Like: 69 °F
Forecast: 64 / 73 °F
Wind: 9 mph from South

Location: Ben Gurion International Airport

Current Time: Oct 9, 2015 at 1:05:36 AM

Latest Report: Oct 9, 2015 at 12:20 AM

Visibility: N/A

Pressure: 29.95 "Hg (28.15 "Hg at 534m altitude)

Humidity: 88%

Dew point: 68 °F

Location of NablusLocation

Historic Weather in Nablus — Graph


Nablus temperature yesterday

Maximum temperature yesterday: 82 °F (at 11:50 AM)
Minimum temperature yesterday: 70 °F (at 2:20 AM)
Average temperature yesterday: 76 °F

Past Weeks' High & Low Weather Summary

High93 °F (Sep 24, 11:50 AM)94% (Oct 7, 6:50 AM)30.12 "Hg (Oct 7, 6:50 AM)
Low68 °F (Oct 7, 2:50 AM)30% (Sep 24, 11:20 AM)29.74 "Hg (Oct 7, 1:50 AM)
Average80 °F64%29.93 "Hg
* Reported Sep 23 11:20 PM — Oct 8 11:20 PM, Nablus, Weather by CustomWeather, © 2015

Note: Actual official high and low records may vary slightly from our data, if they occured in-between our weather recording intervals... More about our weather records


Nablus weather history for previous 24 hours

Time TempWeatherWind HumidityBarometerVisibility
11:20 PM
Thu, Oct 8
75 °FPassing clouds.9 mph74%29.92 "HgN/A
10:50 PM73 °FPassing clouds.8 mph78%29.92 "HgN/A
10:20 PM75 °FPassing clouds.8 mph74%29.92 "HgN/A
9:50 PM75 °FPassing clouds.8 mph74%29.95 "HgN/A
9:20 PM75 °FPassing clouds.7 mph74%29.95 "HgN/A
8:50 PM77 °FPassing clouds.6 mph69%29.95 "HgN/A
8:20 PM77 °FPassing clouds.5 mph69%29.95 "HgN/A
7:50 PM77 °FPassing clouds.5 mph69%29.95 "HgN/A
7:20 PM77 °FPassing clouds.3 mph65%29.92 "HgN/A
6:50 PM77 °FPassing clouds.5 mph65%29.92 "HgN/A
6:20 PM79 °FPassing clouds.5 mph65%29.92 "HgN/A
5:50 PM81 °FPassing clouds.8 mph62%29.92 "HgN/A
5:20 PM81 °FPassing clouds.7 mph58%29.92 "HgN/A
4:50 PM81 °FScattered clouds.12 mph62%29.92 "HgN/A
4:20 PM81 °FPartly sunny.9 mph62%29.92 "HgN/A
3:50 PM81 °FPartly sunny.9 mph58%29.92 "HgN/A
3:20 PM82 °FScattered clouds.13 mph51%29.92 "HgN/A
2:50 PM82 °FScattered clouds.12 mph51%29.92 "HgN/A
2:20 PM82 °FScattered clouds.10 mph51%29.92 "HgN/A
1:50 PM82 °FScattered clouds.13 mph48%29.92 "HgN/A
1:20 PM82 °FScattered clouds.14 mph51%29.92 "HgN/A
12:50 PM82 °FScattered clouds.14 mph51%29.92 "HgN/A
12:20 PM82 °FScattered clouds.12 mph55%29.95 "HgN/A
11:50 AM82 °FPartly sunny.13 mph55%29.92 "HgN/A
11:20 AM81 °FScattered clouds.13 mph54%29.95 "HgN/A
10:50 AM79 °FBroken clouds.7 mph65%29.92 "HgN/A
10:20 AM79 °FScattered clouds.8 mph70%29.92 "HgN/A
9:50 AM77 °FScattered clouds.8 mph74%29.92 "HgN/A
9:20 AM77 °FScattered clouds.10 mph74%29.92 "HgN/A
8:50 AM75 °FScattered clouds.12 mph78%29.92 "HgN/A
8:20 AM73 °FPassing clouds.10 mph78%29.92 "HgN/A
7:50 AM72 °FScattered clouds.8 mph83%29.89 "HgN/A
6:20 AM70 °FPassing clouds.7 mph83%29.89 "HgN/A
5:50 AM70 °FPassing clouds.7 mph88%29.89 "HgN/A
5:20 AM70 °FPassing clouds.7 mph88%29.86 "HgN/A
4:50 AM70 °FPassing clouds.6 mph88%29.86 "HgN/A
4:20 AM70 °FPassing clouds.6 mph83%29.86 "HgN/A
3:50 AM72 °FPassing clouds.7 mph83%29.86 "HgN/A
3:20 AM70 °FPassing clouds.6 mph88%29.86 "HgN/A
2:50 AM70 °FPassing clouds.7 mph88%29.86 "HgN/A
2:20 AM70 °FPassing clouds.6 mph88%29.86 "HgN/A
1:50 AM72 °FPassing clouds.7 mph83%29.86 "HgN/A
1:20 AM72 °FPassing clouds.2 mph83%29.86 "HgN/A
Weather by CustomWeather, © 2015

See weather overviewHow to use our weather pages